This is the latest recevied weather packets stored in our database for station/object 9M2EVR-2. If no packets are shown the sender has not sent any weather packets the latest 10 day(s).
| Time | Temp. | Humidity | Pressure | Rain* | Wind** | Luminosity | Snow |
|---|---|---|---|---|---|---|---|
| 1777971583 | 43.33° C | 39% | 1002.5 hPa | - | - | - | - |
| 1777970682 | 43.33° C | 38% | 1002.4 hPa | - | - | - | - |
| 1777969782 | 43.33° C | 38% | 1002.5 hPa | - | - | - | - |
| 1777968881 | 42.78° C | 39% | 1002.6 hPa | - | - | - | - |
| 1777967980 | 42.78° C | 38% | 1002.7 hPa | - | - | - | - |
| 1777967079 | 42.78° C | 38% | 1003.2 hPa | - | - | - | - |
| 1777966178 | 42.78° C | 39% | 1003.4 hPa | - | - | - | - |
| 1777965277 | 42.78° C | 38% | 1003.5 hPa | - | - | - | - |
| 1777964375 | 42.78° C | 38% | 1003.8 hPa | - | - | - | - |
| 1777963475 | 42.78° C | 39% | 1004.3 hPa | - | - | - | - |
| 1777962574 | 42.78° C | 39% | 1004.6 hPa | - | - | - | - |
| 1777961673 | 42.22° C | 41% | 1005 hPa | - | - | - | - |
| 1777960772 | 42.22° C | 41% | 1005.2 hPa | - | - | - | - |
| 1777959871 | 41.67° C | 41% | 1005.5 hPa | - | - | - | - |
| 1777958971 | 41.67° C | 43% | 1005.8 hPa | - | - | - | - |
| 1777958070 | 41.67° C | 43% | 1006.2 hPa | - | - | - | - |
| 1777957169 | 41.67° C | 44% | 1006.5 hPa | - | - | - | - |
| 1777956268 | 41.11° C | 44% | 1006.9 hPa | - | - | - | - |
| 1777955367 | 41.11° C | 42% | 1007 hPa | - | - | - | - |
| 1777954467 | 40.56° C | 45% | 1007.2 hPa | - | - | - | - |
| 1777953566 | 40° C | 46% | 1007.3 hPa | - | - | - | - |
| 1777952665 | 40° C | 46% | 1007.4 hPa | - | - | - | - |
| 1777951764 | 40° C | 46% | 1007.6 hPa | - | - | - | - |
| 1777950863 | 39.44° C | 48% | 1007.8 hPa | - | - | - | - |
| 1777949963 | 39.44° C | 48% | 1007.8 hPa | - | - | - | - |
* Rain since midnight (hover to see other rain measurements)
** Current wind speed in m/s (hover to see current wind gust speed)